Weather History for KDED - November, 2012

Change the Weather History Date:

Wednesday, November 7, 2012

  Actual Average (KDAB) Record (KDAB)
Temperature  
Mean Temperature 58 °F 68 °F  
Max Temperature 64 °F 78 °F 87 °F (1943)
Min Temperature 51 °F 59 °F 42 °F (1980)
Degree Days  
Heating Degree Days 8 1  
Month to date heating degree days 7  
Since 1 July heating degree days 15  
Cooling Degree Days 0 5  
Month to date cooling degree days 37  
Year to date cooling degree days 2833  
Growing Degree Days 8 (Base 50)    
Moisture  
Dew Point 48 °F    
Average Humidity 72    
Maximum Humidity 100    
Minimum Humidity 45    
Precipitation  
Precipitation 0.00 in 0.09 in 2.54 in (1972)
Month to date precipitation 0.69  
Year to date precipitation 44.99  
Sea Level Pressure  
Sea Level Pressure 29.93 in    
Wind  
Wind Speed 6 mph ()    
Max Wind Speed 16 mph    
Max Gust Speed 22 mph    
Visibility 9.0 miles    
Events      
T = Trace of Precipitation, MM = Missing Value Source: Averaged Metar Reports

Daily Weather History Graph

Daily Weather History Graph

Search for Another Location

Airport or City:

Trip Planner

Search our weather history database for the weather conditions in past years. The results will help you decide how hot, cold, wet, or windy it might be!

Date:

Astronomy

Nov. 07, 2012 Rise Set
Actual Time 6:42 AM EST 5:34 PM EST
Civil Twilight 6:17 AM EST 5:59 PM EST
Nautical Twilight 5:49 AM EST 6:27 PM EST
Astronomical Twilight 5:21 AM EST 6:55 PM EST
Moon 12:07 AM EST (11/7) 1:13 PM EST (11/7)
Length of Visible Light 11h 41m
Length of Day
10h 52m
Last Quarter, 43% of the Moon is Illuminated
Nov 7
Last Quarter
Nov 13
New
Nov 20
First Quarter
Nov 28
Full
Dec 6
Last Quarter

Hourly Weather History & Observations

Time (EST) Temp. Dew Point Humidity Pressure Visibility Wind Dir Wind Speed Gust Speed Precip Events Conditions
12:15 AM 57.2 °F 53.6 °F 88% 29.87 in 9.0 mi WNW 5.8 mph - N/A   Clear
12:35 AM 57.2 °F 53.6 °F 88% 29.87 in 10.0 mi WNW 5.8 mph - N/A   Clear
12:55 AM 55.4 °F 53.6 °F 94% 29.87 in 10.0 mi WNW 5.8 mph - N/A   Clear
1:15 AM 55.4 °F 53.6 °F 94% 29.86 in 9.0 mi Calm Calm - N/A   Clear
1:55 AM 55.4 °F 53.6 °F 94% 29.86 in 9.0 mi Calm Calm - N/A   Clear
2:15 AM 55.4 °F 53.6 °F 94% 29.86 in 9.0 mi Calm Calm - N/A   Clear
2:35 AM 55.4 °F 53.6 °F 94% 29.86 in 8.0 mi WNW 4.6 mph - N/A   Clear
2:55 AM 55.4 °F 53.6 °F 94% 29.86 in 7.0 mi WNW 6.9 mph - N/A   Clear
3:15 AM 55.4 °F 53.6 °F 94% 29.86 in 6.0 mi NW 8.1 mph - N/A   Clear
3:35 AM 55.4 °F 55.4 °F 100% 29.87 in 5.0 mi NW 8.1 mph - N/A   Mostly Cloudy
3:55 AM 55.4 °F 55.4 °F 100% 29.87 in 5.0 mi NW 8.1 mph - N/A   Overcast
4:15 AM 55.4 °F 55.4 °F 100% 29.88 in 5.0 mi NW 6.9 mph - N/A   Overcast
4:35 AM 55.4 °F 53.6 °F 94% 29.89 in 4.0 mi WNW 9.2 mph - N/A   Overcast
4:55 AM 55.4 °F 53.6 °F 94% 29.90 in 5.0 mi WNW 11.5 mph - N/A   Overcast
5:15 AM 55.4 °F 53.6 °F 94% 29.91 in 5.0 mi WNW 11.5 mph 16.1 mph N/A   Overcast
5:35 AM 55.4 °F 53.6 °F 94% 29.91 in 7.0 mi NW 11.5 mph 17.3 mph N/A   Overcast
5:55 AM 55.4 °F 53.6 °F 94% 29.92 in 6.0 mi NW 9.2 mph - N/A   Overcast
6:15 AM 55.4 °F 53.6 °F 94% 29.92 in 5.0 mi NW 6.9 mph - N/A   Overcast
8:15 AM 55.4 °F 50.0 °F 82% 29.95 in 9.0 mi WNW 9.2 mph - N/A   Mostly Cloudy
8:55 AM 55.4 °F 48.2 °F 77% 29.96 in 10.0 mi WNW 8.1 mph - N/A   Mostly Cloudy
9:15 AM 55.4 °F 48.2 °F 77% 29.97 in 10.0 mi WNW 10.4 mph - N/A   Scattered Clouds
9:35 AM 57.2 °F 48.2 °F 72% 29.97 in 9.0 mi NW 12.7 mph - N/A   Partly Cloudy
9:55 AM 57.2 °F 48.2 °F 72% 29.98 in 9.0 mi NW 10.4 mph 17.3 mph N/A   Partly Cloudy
10:15 AM 57.2 °F 46.4 °F 67% 29.97 in 10.0 mi West 10.4 mph - N/A   Clear
10:55 AM 60.8 °F 42.8 °F 52% 29.96 in 9.0 mi NW 13.8 mph 20.7 mph N/A   Partly Cloudy
11:15 AM 60.8 °F 42.8 °F 52% 29.96 in 10.0 mi NNW 16.1 mph 19.6 mph N/A   Partly Cloudy
11:35 AM 62.6 °F 42.8 °F 48% 29.95 in 10.0 mi WNW 16.1 mph 20.7 mph N/A   Clear
11:55 AM 62.6 °F 42.8 °F 48% 29.94 in 10.0 mi WNW 10.4 mph 17.3 mph N/A   Partly Cloudy
12:15 PM 62.6 °F 42.8 °F 48% 29.93 in 10.0 mi WNW 12.7 mph - N/A   Partly Cloudy
12:35 PM 62.6 °F 44.6 °F 52% 29.92 in 10.0 mi WNW 11.5 mph 18.4 mph N/A   Mostly Cloudy
12:55 PM 62.6 °F 42.8 °F 48% 29.92 in 9.0 mi West 12.7 mph 17.3 mph N/A   Scattered Clouds
1:15 PM 62.6 °F 42.8 °F 48% 29.91 in 10.0 mi NW 10.4 mph 17.3 mph N/A   Mostly Cloudy
1:55 PM 62.6 °F 42.8 °F 48% 29.90 in 10.0 mi WNW 10.4 mph - N/A   Scattered Clouds
2:15 PM 64.4 °F 42.8 °F 45% 29.90 in 9.0 mi WNW 13.8 mph - N/A   Partly Cloudy
2:35 PM 64.4 °F 42.8 °F 45% 29.89 in 10.0 mi West 11.5 mph - N/A   Partly Cloudy
2:55 PM 64.4 °F 42.8 °F 45% 29.89 in 9.0 mi NNW 13.8 mph - N/A   Partly Cloudy
3:15 PM 62.6 °F 42.8 °F 48% 29.89 in 10.0 mi NW 10.4 mph 18.4 mph N/A   Mostly Cloudy
3:35 PM 62.6 °F 42.8 °F 48% 29.89 in 10.0 mi NW 10.4 mph 16.1 mph N/A   Partly Cloudy
3:55 PM 62.6 °F 42.8 °F 48% 29.89 in 10.0 mi NW 10.4 mph 16.1 mph N/A   Clear
4:15 PM 62.6 °F 42.8 °F 48% 29.90 in 10.0 mi WNW 6.9 mph - N/A   Clear
4:35 PM 60.8 °F 42.8 °F 52% 29.91 in 10.0 mi WNW 5.8 mph - N/A   Clear
4:55 PM 60.8 °F 42.8 °F 52% 29.91 in 10.0 mi NW 4.6 mph - N/A   Clear
5:15 PM 60.8 °F 44.6 °F 55% 29.91 in 10.0 mi Calm Calm - N/A   Clear
5:35 PM 57.2 °F 44.6 °F 63% 29.92 in 10.0 mi Calm Calm - N/A   Clear
5:55 PM 57.2 °F 44.6 °F 63% 29.93 in 10.0 mi Calm Calm - N/A   Partly Cloudy
6:15 PM 57.2 °F 44.6 °F 63% 29.93 in 10.0 mi Calm Calm - N/A   Scattered Clouds
6:35 PM 53.6 °F 44.6 °F 72% 29.94 in 10.0 mi Calm Calm - N/A   Partly Cloudy
6:55 PM 53.6 °F 46.4 °F 77% 29.95 in 10.0 mi Calm Calm - N/A   Mostly Cloudy
7:15 PM 53.6 °F 46.4 °F 77% 29.96 in 10.0 mi Calm Calm - N/A   Mostly Cloudy
7:35 PM 51.8 °F 46.4 °F 82% 29.96 in 10.0 mi Calm Calm - N/A   Scattered Clouds
7:55 PM 53.6 °F 46.4 °F 77% 29.97 in 10.0 mi Calm Calm - N/A   Mostly Cloudy
8:15 PM 53.6 °F 48.2 °F 82% 29.97 in 10.0 mi Calm Calm - N/A   Mostly Cloudy
8:35 PM 53.6 °F 48.2 °F 82% 29.98 in 10.0 mi Calm Calm - N/A   Scattered Clouds
8:55 PM 53.6 °F 48.2 °F 82% 29.99 in 10.0 mi Calm Calm - N/A   Partly Cloudy
9:15 PM 53.6 °F 46.4 °F 77% 30.00 in 10.0 mi Calm Calm - N/A   Partly Cloudy
9:55 PM 55.4 °F 46.4 °F 72% 30.00 in 10.0 mi Calm Calm - N/A   Mostly Cloudy
10:15 PM 55.4 °F 46.4 °F 72% 30.00 in 9.0 mi Calm Calm - N/A   Partly Cloudy
10:35 PM 53.6 °F 46.4 °F 77% 30.01 in 10.0 mi Calm Calm - N/A   Clear
10:55 PM 53.6 °F 46.4 °F 77% 30.01 in 10.0 mi Calm Calm - N/A   Partly Cloudy
11:15 PM 55.4 °F 46.4 °F 72% 30.02 in 10.0 mi NW 11.5 mph 21.9 mph N/A   Scattered Clouds
11:35 PM 55.4 °F 46.4 °F 72% 30.01 in 10.0 mi Calm Calm - N/A   Mostly Cloudy
11:55 PM 53.6 °F 46.4 °F 77% 30.01 in 10.0 mi Calm Calm - N/A   Mostly Cloudy